星链-32315 (STARLINK-32315)

导读 | 豆包AI

STARLINK-32315是美国SpaceX星链(Starlink)项目中的低轨通信卫星,于2024年8月28日发射入轨,属于第三代星链卫星组网成员。该卫星运行在近地轨道,配备先进相控阵天线与激光通信设备,旨在为全球提供高速低延迟宽带互联网服务,重点覆盖偏远及网络基础设施薄弱区域,是构建全球星链卫星互联网星座的重要组成部分,目前已在轨正常运行超18个月。

基本信息
目录编号:
60740
目录名称:
STARLINK-32315
国际标识:
2024-152W
轨道中心:
EARTH
卫星名称:
星链-32315 (STARLINK-32315)
卫星全名:
星链-32315 (STARLINK-32315)
卫星状态:
在轨 (已飞行564 天)
发射日期:
2024-08-28 UTC
国别 :
美国 (US)
星等 :
--
轨道信息
数据来源 国际轨道数据 AOE轨道数据
星历时间 2026-03-15T05:08:54+0800
19小时前
查看轨道信息
2026-03-12T15:00:00+0800
3天前
查看轨道信息
半长轴 6853.373km 6853.359km
偏心率 0.0001033 0.0001494
轨道倾角 53.160° 53.163°
近地点辐角 107.636° 44.531°
升交点赤经 244.457° 256.480°
平近点角 252.476° 82.703°
近地点 474.528km 474.198km
远地点 475.944km 476.246km
周期 94.106分钟 94.105分钟
每日圈数 15.301931 15.301979
详细信息
卫星平台:
Starlink v2.0 mini
运营商:
太空探索技术公司
运营商所在国:
美国
制造商(研发单位):
太空探索技术公司
制造商所在国:
美国
使用方式:
暂无
卫星简介
星链(Starlink)计划是由太空探索技术公司(SpaceX)提出的一个巨型低轨卫星互联网星座项目,计划在2019年至2024年间在太空搭建由约1.2万颗卫星组成的“星链”网络,其中1584颗将部署在地球上空550千米处的近地轨道,并从2020年开始工作。该卫星仍在工作。
2D轨道图
3D轨道图
轨道高度分析图
轨道倾角分析图
轨道综合分析图
查看轨道综合分析图